This is the latest recevied weather packets stored in our database for station/object N3FWE. If no packets are shown the sender has not sent any weather packets the latest 10 day(s).
| Time | Temp. | Humidity | Pressure | Rain* | Wind** | Luminosity | Snow |
|---|---|---|---|---|---|---|---|
| 1777980613 | 12.22° C | 85% | 1011.5 hPa | 0 mm | - | - | - |
| 1777980014 | 11.67° C | 88% | 1011.4 hPa | 0 mm | - | - | - |
| 1777979413 | 11.11° C | 88% | 1011.4 hPa | 0 mm | - | - | - |
| 1777978814 | 10.56° C | 88% | 1011.2 hPa | 0 mm | - | - | - |
| 1777978214 | 10° C | 87% | 1011.2 hPa | 0 mm | - | - | - |
| 1777977613 | 10° C | 86% | 1011.4 hPa | 0 mm | - | - | - |
| 1777977013 | 10° C | 86% | 1011.2 hPa | 0 mm | - | - | - |
| 1777976414 | 10° C | 86% | 1011.1 hPa | 0 mm | - | - | - |
| 1777975814 | 10° C | 85% | 1011 hPa | 0 mm | - | - | - |
| 1777975214 | 10° C | 85% | 1010.7 hPa | 0 mm | - | - | - |
| 1777974614 | 10° C | 85% | 1010.6 hPa | 0 mm | - | - | - |
| 1777974013 | 10.56° C | 85% | 1010.4 hPa | 0 mm | - | - | - |
| 1777973413 | 10.56° C | 85% | 1010.4 hPa | 0 mm | - | - | - |
| 1777972814 | 10.56° C | 84% | 1010.5 hPa | 0 mm | - | - | - |
| 1777972215 | 10.56° C | 84% | 1010.4 hPa | 0 mm | - | - | - |
| 1777971614 | 11.11° C | 84% | 1010.6 hPa | 0 mm | - | - | - |
| 1777971013 | 11.11° C | 83% | 1010.4 hPa | 0 mm | - | - | - |
| 1777970414 | 11.11° C | 83% | 1010.3 hPa | 0 mm | - | - | - |
| 1777969813 | 11.67° C | 82% | 1010.3 hPa | 0 mm | - | - | - |
| 1777969214 | 11.67° C | 82% | 1010.3 hPa | 0 mm | - | - | - |
| 1777968614 | 11.67° C | 82% | 1010.2 hPa | 0 mm | - | - | - |
| 1777968015 | 12.22° C | 81% | 1010.1 hPa | 0 mm | - | - | - |
| 1777967414 | 12.22° C | 80% | 1010 hPa | 0 mm | - | - | - |
| 1777966814 | 12.78° C | 80% | 1010 hPa | 0 mm | - | - | - |
| 1777966213 | 12.78° C | 79% | 1009.9 hPa | 0 mm | - | - | - |
* Rain latest hour (hover to see other rain measurements)
** Current wind speed in m/s (hover to see current wind gust speed)